www.pogodaiklimat.ru

Погода и климат >> Архив погоды >> Россия >> Мурманская область >> Пялица


ПОГОДА в Пялице

  • Прогноз погоды в Пялице
  • Монитор погоды в Пялице

АРХИВ ПОГОДЫ в Пялице

Время (UTC), дата Ветер
(напр.,м/с)
 
Видим.   Явления Облачность Т
(С)
Тd
(С)
f
(%)
Тe
(С)
Тes
(С)
Комфортность P
(гПа)
Po
(гПа)
Тmin
(С)
Tmax
(С)
R
(мм)
R24
(мм)
S
(см)
00 18.03 Ю 6 20 км 10/10 600 м
[Sc]
-1.3 -2.7 90 -8 -8 1010.1 1009.0
03 18.03 Ю 5 20 км 10/10 600 м
[Sc]
-1.7 -2.7 93 -8 -8 1010.2 1009.1 -2.2
06 18.03 Ю 5 20 км 10/10 600 м
[Sc]
-1.0 -2.1 92 -7 -7 1010.1 1009.0 -2.2 62
09 18.03 ЮВ 4 20 км в посл. час ливневой снег 10/10 600 м
[Sc]
-0.6 -1.4 94 -6 -6 1009.8 1008.7
12 18.03 ЮВ 4 20 км {ливн. осадки} 10/10 600 м
[Sc]
+0.1 -0.9 93 -5 -5 1009.0 1007.9
15 18.03 ЮВ 4 4000 м слаб. ливневой снег 10/10 600 м
[Cb cap]
0.0 -0.7 95 -6 -6 1007.8 1006.7 0.0
18 18.03 Ю 6 4000 м слаб. ливневой снег 10/10 600 м
[Cb cap]
-0.1 -0.4 98 -7 -7 1006.6 1005.5 +0.2 0.5
00 19.03 Ю 7-8
{10}
4000 м слаб. ливневой снег 10/10 600 м
[Cb cap]
-0.1 -0.1 100 -8 -8 1004.2 1003.1
03 19.03 ЮЗ 3 4000 м слаб. ливневой снег [диам. отлож. мокр. снега 10 мм] 10/10 600 м
[Cb cap]
-0.4 -0.4 100 -5 -5 1003.5 1002.4 -0.4 3
06 19.03 ЮЗ 5 2000 м ливневой снег [диам. отлож. мокр. снега 10 мм] 10/10 300 м
[Cb cap]
-0.2 -0.3 99 -7 -7 1003.8 1002.7 -0.5 5 70
09 19.03 ЮЗ 6 4000 м слаб. ливневой снег [диам. отлож. мокр. снега 10 мм] 10/10 300 м
[Cb cap]
+0.2 +0.2 100 -7 -7 1005.1 1004.0
12 19.03 ЮЗ 6 20 км {ливн. осадки} 10/10 600 м
[Sc]
+0.2 +0.2 100 -7 -7 1006.3 1005.2
15 19.03 ЮЗ 5 1000 м дымка 10/10 600 м
[Sc]
+0.1 -0.5 96 -6 -6 1007.1 1006.0 4
18 19.03 ЮЗ 6 4000 м слаб. ливневой снег 10/10 600 м
[Cb cap]
-0.1 -0.1 100 -7 -7 1007.0 1005.9 +0.5 3
21 19.03 ЮЗ 4 н/о н/о -1.3 -2.7 90 -7 -7 1007.0 1005.9
00 20.03 З 3 20 км {ливн. осадки} 9/9 600 м
[Cb cap]
-1.4 -1.4 100 -7 -7 1007.4 1006.3
03 20.03 СЗ 5 20 км 8/5 600 м
[Sc Ci fib]
-2.9 -3.8 93 -10 -10 1008.1 1007.0 -2.9 2
06 20.03 СЗ 5 20 км 8/5 600 м
[Sc Ci fib]
-2.8 -3.8 93 -10 -9 1008.8 1007.7 -3.6 0.7 69
09 20.03 З 5 20 км 9/9 600 м
[Sc]
-1.1 -2.7 89 -8 -7 1009.1 1008.0
12 20.03 З 6 20 км 9/9 600 м
[Sc]
-1.5 -4.0 83 -8 -8 1009.1 1008.0
15 20.03 З 5-6
{11}
20 км {метель} 4/3 600 м
[Sc Ci fib]
-5.5 -8.0 83 -13 -13 1009.3 1008.2
18 20.03 З 3 20 км {метель} 9/9 600 м
[Sc]
-5.2 -6.3 92 -11 -11 1009.1 1008.0 -0.7
00 21.03 СЗ 2 20 км 9/9 600 м
[Sc]
-4.4 -7.8 77 -8 -8 1008.5 1007.4
03 21.03 СЗ 2 20 км 9/9 600 м
[Sc]
-9.2 -10.0 94 -14 -14 1008.4 1007.3 -10.0
06 21.03 СЗ 1 20 км 9/9 600 м
[Sc]
-5.3 -6.6 91 -8 -8 1008.0 1006.9 -10.0 69
09 21.03 Ю 3 20 км 9/8 600 м
[Sc Ci fib]
-2.5 -4.9 84 -8 -7 1007.8 1006.7
12 21.03 Ю 3 20 км 10/10 600 м
[Sc]
-1.7 -2.6 94 -7 -7 1006.8 1005.7
15 21.03 ЮЗ 6 20 км в посл. час ливневой снег 9/9 300 м
[Cb cap]
-2.8 -3.1 98 -10 -10 1006.1 1005.0 0.0
18 21.03 ЮЗ 2 20 км {ливн. осадки} 10/10 600 м
[Cb cap]
-3.1 -3.2 99 -7 -7 1004.8 1003.7 -1.2 0.0
00 22.03 З 1 1000 м дымка 8/3 600 м
[Sc Ci fib]
-8.5 -8.8 98 -11 -11 1002.2 1001.1
03 22.03 СВ 3 20 км [диам. изморози 2 мм] 10/10 600 м
[Sc]
-4.9 -5.2 98 -11 -11 1003.0 1001.9 -8.8 0.0
06 22.03 СВ 1 20 км [диам. изморози 2 мм] 10/10 600 м
[Sc]
-2.9 -3.0 99 -5 -5 1004.9 1003.8 -10.0 69
09 22.03 штиль 0 20 км слаб. ливневой снег 9/8 600 м
[Cb cap Ci fib]
-0.1 -1.6 90 -1 -0 1008.2 1007.1
12 22.03 С 4 20 км {ливн. осадки} 9/9 600 м
[Cb cap]
+0.1 -3.3 78 -5 -5 1011.8 1010.7
15 22.03 З 3 20 км 9/9 600 м
[Sc]
-1.2 -3.7 83 -6 -6 1014.6 1013.5 0.3
18 22.03 СЗ 4 20 км 9/8 600 м
[Sc Ci fib]
-1.5 -3.4 87 -7 -7 1016.9 1015.8 +1.3 0.3
00 23.03 З 2 20 км 4/1 600 м
[Sc Ci fib]
-9.2 -9.8 95 -14 -14 1017.9 1016.8
03 23.03 З 2 500 м переохл. туман [диам. изморози 1 мм] 8/6 600 м
[Sc Ci fib]
-9.6 -10.0 97 -14 -14 1016.4 1015.3 -11.2 0.0
06 23.03 ЮЗ 7 20 км {туман} [диам. изморози 1 мм] 10/10 600 м
[Sc]
-2.7 -3.1 97 -11 -11 1014.0 1012.9 -11.2 69
09 23.03 ЮЗ 15-17
{18}
20 км позёмок 9/9 600 м
[Cb cap]
-1.5 -2.5 93 -12 -12 1008.4 1007.3
12 23.03 Ю 17-21
{22}
1000 м слаб. ливневой снег {метель} 10/10 300 м
[Cb cap]
-1.0 -2.1 92 -12 -12 1003.4 1002.3
15 23.03 ЮЗ 16-20
{22}
1000 м слаб. ливневой снег {метель} 10/10 300 м
[Cb cap]
-0.9 -1.0 99 -11 -11 998.6 997.5 0.7
18 23.03 ЮЗ 14-17
{21}
1000 м слаб. ливневой снег {метель} 10/10 300 м
[Cb cap]
-0.8 -0.9 99 -11 -11 994.9 993.8 -0.8 2
21 23.03 ЮЗ 12-15
{18}
4000 м слаб. ливневой снег {метель} 10/10 300 м
[Cb cap]
-0.7 -0.8 99 -10 -10 992.7 991.6
00 24.03 ЮЗ 10-12
{15}
4000 м слаб. ливневой снег {метель} 10/10 300 м
[Cb cap]
-0.1 -0.2 99 -9 -9 991.4 990.3
03 24.03 ЮЗ 7-8
{12}
20 км {ливн. осадки} 9/9 300 м
[Cb cap]
-0.9 -1.2 98 -8 -8 991.9 990.8 -1.0 3
06 24.03 ЮЗ 6 20 км {ливн. осадки} 9/9 600 м
[Sc]
-0.8 -1.2 97 -8 -8 992.0 990.9 -1.2 0.9 70
09 24.03 ЮЗ 10-12
{12}
20 км 6/3 600 м
[Sc Ci fib]
-0.1 -1.0 94 -9 -8 991.3 990.2
12 24.03 Ю 10-12
{13}
20 км 6/3 600 м
[Sc Ci fib]
+0.3 -1.0 91 -8 -8 991.0 989.9
15 24.03 ЮЗ 9-11
{13}
4000 м слаб. ливневой снег 10/10 600 м
[Cb cap]
+0.3 -0.5 94 -8 -8 991.3 990.2 0.0
18 24.03 ЮЗ 8-11
{12}
4000 м слаб. ливневой снег 10/10 300 м
[Cb cap]
-0.2 -0.3 99 -8 -8 991.2 990.1 +0.6 0.4

 

Местоположение метеостанции Пялица (Мурманская область, Россия): широта 66.18 долгота 39.53 высота над уровнем моря 9 м.

В архиве по умолчанию представлена погода в Пялице за последнюю неделю. Архивные данные за месяц целиком и за предыдущие месяцы, начиная с января 2011 года, Вы можете получить, выбрав интересующий диапазон дат из раскрывающегося списка и нажав кнопку "Ввод!".


*Определитесь, кто Вы:
робот инопланетянин человек

Внимание! Время в таблицах - всемирное. Для получения местного времени необходимо прибавить поправку, которая равна 3 ч.

Смотрите также архив погоды в соседних городах и на ближайших метеорологических станциях:

Погода на Сосновец Острове (Мурманская область, Россия) (61 км)
Погода на Чаваньга реке (Мурманская область, Россия) (81 км)
Погода в Зимнегорском Маяке (Архангельская область, Россия) (81 км)
Погода в Каневке (Мурманская область, Россия) (106 км)
Погода в Кепино (Архангельская область, Россия) (138 км)
Погода на Моржовец Острове (Архангельская область, Россия) (144 км)
Погода на Мудьюг Острове (Архангельская область, Россия) (152 км)
Погода в Кашкаранцах (Мурманская область, Россия) (158 км)
Погода в Унском Маяке (Архангельская область, Россия) (159 км)
Погода в Жижгине (Архангельская область, Россия) (165 км)

Пояснения к столбцам:

Ветер - указаны скорость ветра в м/с - средняя за 10 мин, порывы в срок и между сроками (в фигурных скобках) и направление, откуда дует ветер: С - северный, СВ - северо-восточный, В - восточный, ЮВ - юго-восточный, Ю - южный, ЮЗ - юго-западный, З - западный, СЗ - северо-западный.
Видимость - горизонтальная дальность видимости в метрах или километрах. При видимости от 1 до 10 км при отсутствии осадков обычно наблюдается дымка, при ухудшении видимости до 1 км и менее - туман. В сухую погоду видимость может ухудшаться дымом, пылью или мглою.
Явления - указаны атмосферные явления, наблюдавшиеся в срок или в последний час перед сроком; фигурными скобками обозначены явления, наблюдавшиеся между сроками (за 1-3 часа до срока); квадратными скобками обозначены град или гололедные отложения с указанием их диаметра в мм.
Облачность - указаны через наклонную черту общая и нижняя облачность в баллах и высота нижней границы облаков в метрах; квадратными скобками обозначены формы облаков: Ci - перистые, Cs - перисто-слоистые, Cc - перисто-кучевые, Ac - высококучевые, As - высокослоистые, Sc - слоисто-кучевые, Ns - слоисто-дождевые, Cu - кучевые, Cb - кучево-дождевые. Подробнее классификацию облаков см. в Атласе облаков (PDF).
T - Температура воздуха - температура, измеренная на высоте 2 м над землей.
Td - Температура точки росы - температура, при понижении до которой содержащийся в воздухе водяной пар достигнет насыщения.
f - Относительная влажность воздуха - влажноcть воздуха, измеренная на высоте 2 м над землей.
Te - Эффективная температура - температура, которую ощущает одетый по сезону человек в тени. Характеристика душности погоды. При расчете учитывается влияние влажности воздуха и скорости ветра на теплоощущения человека.
Tes - Эффективная температура на солнце - температура, которую ощущает человек, с поправкой на солнечный нагрев. Характеристика знойности погоды. Зависит от высоты солнца над горизонтом, облачности и скорости ветра. Ночью, в пасмурную погоду, а также при ветре 12 м/с и более поправка равна нулю.
P - Атмосферное давление - приведенное к уровню моря атмосферное давление.
Po - Атмосферное давление - измеренное на уровне метеостанции атмосферное давление.
Tmin - Минимальная температура - минимум температуры воздуха на высоте 2 м над землей.
Tmax - Максимальная температура - максимум температуры воздуха на высоте 2 м над землей.
R - Количество осадков - Количество выпавших осадков за период времени, мм. При наведении курсора мыши на число - период времени, за который выпало указанное количество осадков.
R24 - Количество осадков - Количество выпавших осадков за 24 часа, мм.
S - Снежный покров - Высота снежного покрова, см. При наведении курсора мыши на число - состояние снежного покрова и степень покрытия местности в баллах.